Location: Lombard
(41.8800°N, 88.0080°W)
Time: 13:32:29
(UTC-05:00)

O/OREOS (USA 219) - Visible Passes

Search period start: 17 May 2022 00:00
Search period end: 27 May 2022 00:00
Orbit: 621 x 646 km, 72.0° (Epoch: 22 May)

Date Brightness Start Highest point End Pass type
(mag) Time Alt. Az. Time Alt. Az. Time Alt. Az.
17 May ? 00:32:51 19° ENE 00:32:51 19° ENE 00:34:35 10° NE visible
17 May ? 02:10:17 31° WNW 02:10:17 31° WNW 02:14:10 10° N visible
18 May ? 00:54:17 37° NE 00:54:17 37° NE 00:57:10 10° NNE visible
18 May ? 02:31:42 15° WNW 02:32:34 16° NW 02:35:18 10° NNW visible
19 May ? 01:15:40 49° NNW 01:15:40 49° NNW 01:19:14 10° NNE visible
19 May ? 23:59:36 21° ENE 23:59:36 21° ENE 00:01:30 10° NE visible
20 May ? 01:37:01 28° WNW 01:37:01 28° WNW 01:40:53 10° N visible
21 May ? 00:20:55 42° NE 00:20:55 42° NE 00:24:00 10° NNE visible
21 May ? 01:58:21 13° WNW 01:59:26 14° NW 02:01:54 10° NNW visible
21 May ? 23:04:47 11° ENE 23:04:47 11° ENE 23:05:05 10° ENE visible
22 May ? 00:42:12 50° NNW 00:42:12 50° NNW 00:46:01 10° NNE visible
22 May ? 23:26:00 25° ENE 23:26:00 25° ENE 23:28:25 10° NE visible
23 May ? 01:03:26 25° WNW 01:03:51 25° WNW 01:07:37 10° N visible
23 May ? 23:47:11 56° NE 23:47:11 56° NE 23:50:49 10° NNE visible
24 May ? 01:24:36 11° WNW 01:26:18 13° NW 01:28:26 10° NNW visible
24 May ? 22:30:53 14° ENE 22:30:53 14° ENE 22:32:11 10° ENE visible
25 May ? 00:08:18 48° WNW 00:08:25 48° WNW 00:12:47 10° NNE visible
25 May ? 22:51:56 33° E 22:51:56 33° E 22:55:18 10° NE visible
26 May ? 00:29:20 20° W 00:30:42 23° WNW 00:34:19 10° N visible
26 May ? 23:12:52 78° S 23:13:09 83° ESE 23:17:38 10° NNE visible
